Weather in Arty

Russia / Sverdlovsk Oblast     56°25′00″N   58°31′57″E
temp.,
°C
wind,
m/s
gust,
m/s
humid.,
%
clouds,
%
prec.,
mm/h
press.,
hPa
HPBL,
m
25 july, sun
sun2523:00+13wnw249486 0.9 100892
02:00+12nnw369888 0.6 1009276
05:00+11nnw389489 0.9 1011419
08:00+12nnw49822 0.0 1013574
11:00+16nnw67450 0.0 10141549
14:00+18nw66372 0.0 10151960
17:00+18nw56385 0.0 10162048
20:00+14nnw37542 0.0 1018289
26 july, mon
mon2623:00+9nw11665 0.0 101910
02:00+11wnw1157100 0.0 102011
05:00+11wsw1160100 0.0 102017
08:00+13wnw246085 0.0 1020240
11:00+16w464187 0.0 10201983
14:00+16wnw4647100 0.0 10201649
17:00+16w5654100 0.0 10191215
20:00+14w597095 0.2 1018504
27 july, tue
tue2723:00+10sw22805 0.2 101813
02:00+9sw22826 0.0 101727
05:00+12sw41169100 0.0 1015360
08:00+14wsw61366100 0.0 1014647
11:00+16w596765 0.3 1013972
14:00+17wnw587627 1.3 10121141
17:00+17nw5873100 2.8 10121169
20:00+15nnw477064 0.3 1011402
28 july, wed
wed2823:00+12nw2681100 0.3 1012228
02:00+8nw22895 0.0 101312
05:00+5nw25955 0.0 1014109
08:00+9wnw38855 0.0 1014349
11:00+14w595632 0.0 10131429
14:00+17wnw61048100 0.0 10122432
17:00+17nw51050100 0.0 10121769
20:00+14w2264100 0.0 101222
29 july, thu
thu2923:00+13sw3864100 0.0 1011210
02:00+15sw61454100 0.0 1008461
05:00+14sw61656100 0.0 1007743
08:00+12wsw61288100 0.5 1007601
11:00+12wsw51293100 1.6 1007575
14:00+19w6969100 0.3 10061401
17:00+17wnw488694 1.8 1007765
20:00+16nnw24905 0.6 1007146